Wheaton, MN

1:11 PM CST on February 26, 2017 (GMT -0600)
Wheaton Municipal

Weather History for KETH - September, 2013

Change the Weather History Date:

Thursday, September 12, 2013

  Actual Average Record
Temperature  
Mean Temperature 63 °F -  
Max Temperature 75 °F 76 °F 93 °F (1969)
Min Temperature 51 °F 50 °F 33 °F (2007)
Degree Days  
Heating Degree Days 2    
Growing Degree Days 13 (Base 50)    
Moisture  
Dew Point 53 °F    
Average Humidity 74    
Maximum Humidity 94    
Minimum Humidity 47    
Precipitation  
Precipitation 0.00 in - - ()
Sea Level Pressure  
Sea Level Pressure 30.26 in    
Wind  
Wind Speed 3 mph (NW)    
Max Wind Speed 14 mph    
Max Gust Speed 17 mph    
Visibility 10 miles    
Events      
Averages and records for this station are not official NWS values.
T = Trace of Precipitation, MM = Missing Value Source: NWS Daily Summary

Daily Weather History Graph

Daily Weather History Graph

Search for Another Location

Airport or City:

Trip Planner

Search our weather history database for the weather conditions in past years. The results will help you decide how hot, cold, wet, or windy it might be!

Date:

Astronomy

Sep. 12, 2013 Rise Set
Actual Time 7:01 AM CDT 7:42 PM CDT
Civil Twilight 6:31 AM CDT 8:12 PM CDT
Nautical Twilight 5:55 AM CDT 8:48 PM CDT
Astronomical Twilight 5:18 AM CDT 9:25 PM CDT
Moon 2:50 PM CDT (9/12) No Moon Set
Length of Visible Light 13h 41m
Length of Day
12h 41m
Waxing Crescent, 50% of the Moon is Illuminated
Sep 12
Waxing Crescent
Sep 12
First Quarter
Sep 19
Full
Sep 26
Last Quarter
Oct 4
New

Hourly Weather History & Observations

Time (CDT) Temp. Dew Point Humidity Pressure Visibility Wind Dir Wind Speed Gust Speed Precip Events Conditions
12:14 AM 59.0 °F 53.6 °F 82% 30.19 in 10.0 mi Calm Calm - N/A   Clear
12:34 AM 57.2 °F 51.8 °F 82% 30.19 in 10.0 mi WNW 3.5 mph - N/A   Clear
12:54 AM 57.2 °F 51.8 °F 82% 30.19 in 10.0 mi Calm Calm - N/A   Clear
1:14 AM 55.4 °F 51.8 °F 88% 30.20 in 10.0 mi Calm Calm - N/A   Clear
1:34 AM 55.4 °F 51.8 °F 88% 30.20 in 10.0 mi Calm Calm - N/A   Clear
1:54 AM 57.2 °F 51.8 °F 82% 30.20 in 10.0 mi Calm Calm - N/A   Clear
2:15 AM 55.4 °F 51.8 °F 88% 30.20 in 10.0 mi Calm Calm - N/A   Clear
2:36 AM 55.4 °F 51.8 °F 88% 30.20 in 10.0 mi Calm Calm - N/A   Clear
2:55 AM 55.4 °F 51.8 °F 88% 30.20 in 10.0 mi WSW 3.5 mph - N/A   Clear
3:15 AM 53.6 °F 51.8 °F 94% 30.21 in 10.0 mi Calm Calm - N/A   Clear
3:34 AM 55.4 °F 51.8 °F 88% 30.21 in 10.0 mi Calm Calm - N/A   Clear
3:54 AM 53.6 °F 50.0 °F 88% 30.22 in 10.0 mi WNW 3.5 mph - N/A   Clear
4:14 AM 53.6 °F 51.8 °F 94% 30.22 in 10.0 mi Calm Calm - N/A   Clear
4:34 AM 53.6 °F 50.0 °F 88% 30.21 in 10.0 mi Calm Calm - N/A   Clear
4:54 AM 53.6 °F 51.8 °F 94% 30.22 in 10.0 mi West 3.5 mph - N/A   Clear
5:14 AM 51.8 °F 48.2 °F 88% 30.22 in 10.0 mi West 3.5 mph - N/A   Clear
5:34 AM 51.8 °F 50.0 °F 94% 30.23 in 10.0 mi West 3.5 mph - N/A   Clear
5:54 AM 51.8 °F 48.2 °F 88% 30.23 in 10.0 mi WNW 3.5 mph - N/A   Clear
6:14 AM 51.8 °F 48.2 °F 88% 30.24 in 10.0 mi Calm Calm - N/A   Clear
6:34 AM 51.8 °F 50.0 °F 94% 30.25 in 10.0 mi West 3.5 mph - N/A   Clear
6:55 AM 51.8 °F 48.2 °F 88% 30.26 in 10.0 mi WNW 3.5 mph - N/A   Clear
7:14 AM 51.8 °F 50.0 °F 94% 30.26 in 10.0 mi NNW 4.6 mph - N/A   Clear
7:34 AM 51.8 °F 50.0 °F 94% 30.26 in 10.0 mi NNW 4.6 mph - N/A   Clear
7:55 AM 53.6 °F 51.8 °F 94% 30.27 in 10.0 mi Calm Calm - N/A   Clear
8:15 AM 55.4 °F 53.6 °F 94% 30.28 in 10.0 mi West 4.6 mph - N/A   Clear
8:34 AM 57.2 °F 53.6 °F 88% 30.28 in 10.0 mi NNW 4.6 mph - N/A   Clear
8:54 AM 59.0 °F 53.6 °F 82% 30.28 in 10.0 mi NNW 5.8 mph - N/A   Clear
9:14 AM 60.8 °F 53.6 °F 77% 30.29 in 10.0 mi NW 5.8 mph - N/A   Clear
9:35 AM 62.6 °F 55.4 °F 77% 30.30 in 10.0 mi NW 5.8 mph - N/A   Clear
9:55 AM 64.4 °F 55.4 °F 73% 30.30 in 10.0 mi NW 4.6 mph - N/A   Clear
10:14 AM 64.4 °F 55.4 °F 73% 30.30 in 10.0 mi West 5.8 mph - N/A   Clear
10:34 AM 66.2 °F 55.4 °F 68% 30.31 in 10.0 mi WNW 6.9 mph - N/A   Clear
10:55 AM 68.0 °F 55.4 °F 64% 30.31 in 10.0 mi WNW 6.9 mph - N/A   Clear
11:14 AM 69.8 °F 55.4 °F 60% 30.31 in 10.0 mi NNW 5.8 mph - N/A   Clear
11:34 AM 69.8 °F 55.4 °F 60% 30.31 in 10.0 mi North 8.1 mph - N/A   Clear
11:54 AM 71.6 °F 55.4 °F 57% 30.31 in 10.0 mi NNE 8.1 mph - N/A   Clear
12:14 PM 71.6 °F 55.4 °F 57% 30.30 in 10.0 mi NNW 8.1 mph - N/A   Clear
12:35 PM 71.6 °F 53.6 °F 53% 30.30 in 10.0 mi North 9.2 mph - N/A   Clear
12:55 PM 71.6 °F 55.4 °F 57% 30.30 in 10.0 mi NW 8.1 mph - N/A   Scattered Clouds
1:14 PM 73.4 °F 55.4 °F 53% 30.29 in 10.0 mi NW 13.8 mph 17.3 mph N/A   Scattered Clouds
1:34 PM 73.4 °F 53.6 °F 50% 30.29 in 10.0 mi North 9.2 mph - N/A   Scattered Clouds
1:54 PM 73.4 °F 55.4 °F 53% 30.29 in 10.0 mi NNW 8.1 mph - N/A   Mostly Cloudy
2:15 PM 73.4 °F 53.6 °F 50% 30.29 in 10.0 mi NNW 8.1 mph - N/A   Scattered Clouds
2:34 PM 73.4 °F 53.6 °F 50% 30.28 in 10.0 mi NW 9.2 mph - N/A   Scattered Clouds
2:55 PM 73.4 °F 53.6 °F 50% 30.28 in 10.0 mi NNW 11.5 mph - N/A   Scattered Clouds
3:15 PM 73.4 °F 53.6 °F 50% 30.27 in 10.0 mi NNW 10.4 mph - N/A   Scattered Clouds
3:35 PM 73.4 °F 53.6 °F 50% 30.26 in 10.0 mi NW 12.7 mph 16.1 mph N/A   Scattered Clouds
3:54 PM 71.6 °F 53.6 °F 53% 30.26 in 10.0 mi NNW 10.4 mph - N/A   Scattered Clouds
4:14 PM 73.4 °F 53.6 °F 50% 30.26 in 10.0 mi NNW 10.4 mph - N/A   Scattered Clouds
4:34 PM 73.4 °F 53.6 °F 50% 30.26 in 10.0 mi NW 9.2 mph - N/A   Scattered Clouds
4:54 PM 75.2 °F 53.6 °F 47% 30.26 in 10.0 mi North 10.4 mph - N/A   Scattered Clouds
5:14 PM 71.6 °F 53.6 °F 53% 30.26 in 10.0 mi North 8.1 mph - N/A   Mostly Cloudy
5:34 PM 73.4 °F 53.6 °F 50% 30.25 in 10.0 mi NNW 6.9 mph - N/A   Scattered Clouds
5:54 PM 73.4 °F 53.6 °F 50% 30.25 in 10.0 mi NNW 5.8 mph - N/A   Clear
6:14 PM 73.4 °F 53.6 °F 50% 30.25 in 10.0 mi North 6.9 mph - N/A   Scattered Clouds
6:34 PM 71.6 °F 51.8 °F 50% 30.25 in 10.0 mi North 4.6 mph - N/A   Scattered Clouds
6:54 PM 69.8 °F 53.6 °F 56% 30.25 in 10.0 mi NNW 3.5 mph - N/A   Clear
7:15 PM 69.8 °F 53.6 °F 56% 30.25 in 10.0 mi North 3.5 mph - N/A   Clear
7:34 PM 66.2 °F 53.6 °F 64% 30.25 in 10.0 mi Calm Calm - N/A   Clear
7:54 PM 64.4 °F 53.6 °F 68% 30.25 in 10.0 mi Calm Calm - N/A   Clear
8:14 PM 62.6 °F 53.6 °F 72% 30.26 in 10.0 mi Calm Calm - N/A   Clear
8:34 PM 62.6 °F 53.6 °F 72% 30.26 in 10.0 mi Calm Calm - N/A   Clear
8:54 PM 60.8 °F 53.6 °F 77% 30.27 in 10.0 mi Calm Calm - N/A   Clear
9:15 PM 57.2 °F 53.6 °F 88% 30.27 in 10.0 mi Calm Calm - N/A   Clear
9:34 PM 57.2 °F 53.6 °F 88% 30.27 in 10.0 mi Calm Calm - N/A   Clear
9:54 PM 55.4 °F 51.8 °F 88% 30.27 in 10.0 mi Calm Calm - N/A   Clear
10:15 PM 53.6 °F 51.8 °F 94% 30.27 in 10.0 mi Calm Calm - N/A   Clear
10:34 PM 55.4 °F 51.8 °F 88% 30.27 in 10.0 mi Calm Calm - N/A   Clear
10:55 PM 53.6 °F 50.0 °F 88% 30.27 in 10.0 mi Calm Calm - N/A   Clear
11:14 PM 53.6 °F 51.8 °F 94% 30.27 in 10.0 mi Calm Calm - N/A   Clear
11:35 PM 51.8 °F 48.2 °F 88% 30.27 in 10.0 mi Calm Calm - N/A   Clear
11:54 PM 55.4 °F 51.8 °F 88% 30.27 in 10.0 mi Calm Calm - N/A   Clear